When you browse on this site, cookies collect data to enhance your experience and personalize the content and advertising you see.
Visit our Privacy Policy to learn more. By continuing to use the site, you agree to this use of cookies and data.
  • In France
  • List of Countries
  • For 7 days
  • Water Temperature
  • Satellite Maps
  • Weather Map
  • Weather Widgets
  • user-avatar
    Login

    Hourly Weather Bajdabo

    Today, 16 June, Sunday

    Time Temperature Precipitation Wind Pressure Humidity
    00:00 +22°C° 0 mm 6 mps 724 mmHg 82%
    01:00 +22°C° 0 mm 6 mps 723 mmHg 83%
    02:00 +22°C° 0 mm 6 mps 723 mmHg 83%
    03:00 +22°C° 0 mm 6 mps 722 mmHg 84%
    04:00 +21°C° 0 mm 6 mps 723 mmHg 84%
    05:00 +21°C° 0 mm 6 mps 723 mmHg 84%
    06:00 +21°C° 0 mm 6 mps 723 mmHg 84%
    07:00 +23°C° 0 mm 7 mps 724 mmHg 78%
    08:00 +24°C° 0 mm 8 mps 724 mmHg 72%
    09:00 +26°C° 0 mm 9 mps 724 mmHg 65%
    10:00 +27°C° 0 mm 8 mps 724 mmHg 61%
    11:00 +28°C° 0 mm 8 mps 724 mmHg 57%
    12:00 +29°C° 0 mm 8 mps 723 mmHg 52%
    13:00 +31°C° 0 mm 8 mps 723 mmHg 52%
    14:00 +31°C° 0 mm 8 mps 722 mmHg 52%
    15:00 +31°C° 0 mm 8 mps 721 mmHg 51%
    16:00 +29°C° 0 mm 7 mps 722 mmHg 54%
    17:00 +28°C° 0 mm 6 mps 722 mmHg 56%
    18:00 +28°C° 0 mm 5 mps 722 mmHg 59%
    19:00 +27°C° 0 mm 5 mps 723 mmHg 61%
    20:00 +26°C° 0 mm 5 mps 723 mmHg 64%
    21:00 +24°C° 0 mm 6 mps 723 mmHg 66%
    22:00 +23°C° 0 mm 5 mps 724 mmHg 70%
    23:00 +23°C° 0 mm 5 mps 724 mmHg 74%

    Tomorrow, 17 June, Monday

    Time Temperature Precipitation Wind Pressure Humidity
    00:00 +22°C° 0 mm 5 mps 724 mmHg 79%
    01:00 +22°C° 0 mm 5 mps 724 mmHg 81%
    02:00 +22°C° 0 mm 5 mps 723 mmHg 83%
    03:00 +22°C° 0 mm 5 mps 723 mmHg 86%
    04:00 +22°C° 0 mm 5 mps 723 mmHg 87%
    05:00 +21°C° 0 mm 5 mps 724 mmHg 88%
    06:00 +21°C° 0 mm 5 mps 724 mmHg 89%
    07:00 +23°C° 0 mm 5 mps 725 mmHg 83%
    08:00 +24°C° 0 mm 6 mps 725 mmHg 78%
    09:00 +27°C° 0 mm 7 mps 725 mmHg 72%
    10:00 +28°C° 0 mm 7 mps 725 mmHg 69%
    11:00 +28°C° 0 mm 7 mps 725 mmHg 66%
    12:00 +29°C° 0 mm 7 mps 725 mmHg 63%
    13:00 +29°C° 0 mm 7 mps 724 mmHg 62%
    14:00 +30°C° 0 mm 7 mps 723 mmHg 61%
    15:00 +30°C° 0 mm 7 mps 722 mmHg 60%
    16:00 +29°C° 0 mm 6 mps 722 mmHg 63%
    17:00 +28°C° 0 mm 5 mps 723 mmHg 66%
    18:00 +28°C° 0 mm 5 mps 723 mmHg 69%
    19:00 +27°C° 0.1 mm 5 mps 723 mmHg 73%
    20:00 +26°C° 0.1 mm 5 mps 724 mmHg 78%
    21:00 +25°C° 0.1 mm 5 mps 724 mmHg 83%
    22:00 +25°C° 0 mm 4 mps 724 mmHg 85%
    23:00 +23°C° 0 mm 4 mps 724 mmHg 87%

    Day after tomorrow, 18 June, Tuesday

    Time Temperature Precipitation Wind Pressure Humidity
    00:00 +23°C° 0 mm 4 mps 724 mmHg 89%
    01:00 +23°C° 0 mm 4 mps 724 mmHg 91%
    02:00 +23°C° 0 mm 4 mps 724 mmHg 92%
    03:00 +22°C° 0 mm 4 mps 723 mmHg 93%
    04:00 +22°C° 0 mm 5 mps 724 mmHg 92%
    05:00 +22°C° 0 mm 5 mps 724 mmHg 92%
    06:00 +22°C° 0 mm 5 mps 724 mmHg 92%
    07:00 +23°C° 0 mm 6 mps 724 mmHg 87%
    08:00 +24°C° 0 mm 7 mps 725 mmHg 82%
    09:00 +26°C° 0 mm 7 mps 725 mmHg 77%
    10:00 +27°C° 0 mm 7 mps 725 mmHg 73%
    11:00 +28°C° 0 mm 7 mps 724 mmHg 69%
    12:00 +29°C° 0 mm 7 mps 724 mmHg 65%
    13:00 +29°C° 0 mm 7 mps 723 mmHg 63%
    14:00 +30°C° 0 mm 7 mps 723 mmHg 61%
    15:00 +30°C° 0 mm 6 mps 722 mmHg 59%
    16:00 +29°C° 0.1 mm 6 mps 722 mmHg 63%
    17:00 +29°C° 0.1 mm 6 mps 722 mmHg 67%
    18:00 +28°C° 0.1 mm 6 mps 722 mmHg 70%
    19:00 +27°C° 0.1 mm 5 mps 723 mmHg 75%
    20:00 +26°C° 0.1 mm 5 mps 723 mmHg 80%
    21:00 +25°C° 0.1 mm 5 mps 724 mmHg 84%
    22:00 +25°C° 0 mm 5 mps 724 mmHg 86%
    23:00 +23°C° 0 mm 5 mps 724 mmHg 88%

    19 June, Wednesday

    Time Temperature Precipitation Wind Pressure Humidity
    00:00 +23°C° 0 mm 5 mps 724 mmHg 90%
    01:00 +23°C° 0 mm 5 mps 723 mmHg 91%
    02:00 +23°C° 0 mm 5 mps 723 mmHg 92%
    03:00 +22°C° 0 mm 6 mps 723 mmHg 92%
    04:00 +22°C° 0 mm 5 mps 723 mmHg 93%
    05:00 +22°C° 0 mm 5 mps 723 mmHg 93%
    06:00 +22°C° 0 mm 5 mps 723 mmHg 94%
    07:00 +23°C° 0 mm 6 mps 724 mmHg 87%
    08:00 +24°C° 0 mm 7 mps 724 mmHg 81%
    09:00 +27°C° 0 mm 7 mps 725 mmHg 75%
    10:00 +28°C° 0.1 mm 7 mps 724 mmHg 70%
    11:00 +29°C° 0.1 mm 7 mps 724 mmHg 66%
    12:00 +30°C° 0.1 mm 7 mps 724 mmHg 61%
    13:00 +30°C° 0.1 mm 7 mps 723 mmHg 59%
    14:00 +32°C° 0.1 mm 7 mps 723 mmHg 57%
    15:00 +32°C° 0.1 mm 7 mps 722 mmHg 55%
    16:00 +30°C° 0.1 mm 7 mps 722 mmHg 60%
    17:00 +29°C° 0.1 mm 7 mps 722 mmHg 65%
    18:00 +28°C° 0.1 mm 6 mps 722 mmHg 71%
    19:00 +27°C° 0 mm 6 mps 722 mmHg 76%
    20:00 +26°C° 0 mm 6 mps 723 mmHg 81%
    21:00 +25°C° 0 mm 5 mps 723 mmHg 85%
    22:00 +24°C° 0 mm 6 mps 723 mmHg 87%
    23:00 +23°C° 0 mm 6 mps 723 mmHg 89%

    20 June, Thursday

    Time Temperature Precipitation Wind Pressure Humidity
    00:00 +23°C° 0 mm 6 mps 723 mmHg 90%
    01:00 +23°C° 0 mm 6 mps 723 mmHg 90%
    02:00 +23°C° 0 mm 7 mps 722 mmHg 90%
    03:00 +22°C° 0 mm 7 mps 722 mmHg 90%
    04:00 +22°C° 0 mm 6 mps 723 mmHg 90%
    05:00 +22°C° 0 mm 6 mps 723 mmHg 90%
    06:00 +22°C° 0 mm 5 mps 723 mmHg 91%
    07:00 +23°C° 0.1 mm 6 mps 724 mmHg 86%
    08:00 +24°C° 0.1 mm 6 mps 724 mmHg 81%
    09:00 +26°C° 0.1 mm 7 mps 725 mmHg 76%
    10:00 +27°C° 0.1 mm 8 mps 724 mmHg 70%
    11:00 +29°C° 0.1 mm 8 mps 724 mmHg 64%
    12:00 +31°C° 0.1 mm 8 mps 723 mmHg 58%
    13:00 +32°C° 0 mm 8 mps 723 mmHg 54%
    14:00 +32°C° 0 mm 8 mps 722 mmHg 51%
    15:00 +33°C° 0 mm 8 mps 721 mmHg 48%
    16:00 +30°C° 0 mm 7 mps 721 mmHg 53%
    17:00 +29°C° 0 mm 6 mps 721 mmHg 58%
    18:00 +28°C° 0 mm 6 mps 721 mmHg 63%
    19:00 +27°C° 0.1 mm 6 mps 722 mmHg 68%
    20:00 +26°C° 0.1 mm 6 mps 722 mmHg 74%
    21:00 +24°C° 0.1 mm 6 mps 723 mmHg 80%
    22:00 +24°C° 0 mm 6 mps 723 mmHg 82%
    23:00 +23°C° 0 mm 6 mps 723 mmHg 84%

    21 June, Friday

    Time Temperature Precipitation Wind Pressure Humidity
    00:00 +23°C° 0 mm 7 mps 723 mmHg 86%
    01:00 +23°C° 0 mm 6 mps 722 mmHg 87%
    02:00 +22°C° 0 mm 6 mps 722 mmHg 88%
    03:00 +22°C° 0 mm 6 mps 722 mmHg 89%
    04:00 +22°C° 0 mm 6 mps 722 mmHg 90%
    05:00 +22°C° 0 mm 5 mps 722 mmHg 90%
    06:00 +22°C° 0 mm 5 mps 723 mmHg 91%
    07:00 +23°C° 0 mm 6 mps 723 mmHg 84%
    08:00 +24°C° 0 mm 7 mps 724 mmHg 77%
    09:00 +27°C° 0 mm 8 mps 724 mmHg 71%
    10:00 +28°C° 0 mm 8 mps 724 mmHg 66%
    11:00 +29°C° 0 mm 8 mps 723 mmHg 61%
    12:00 +31°C° 0 mm 8 mps 723 mmHg 57%
    13:00 +31°C° 0.1 mm 8 mps 722 mmHg 56%
    14:00 +32°C° 0.1 mm 8 mps 722 mmHg 55%
    15:00 +32°C° 0.1 mm 8 mps 721 mmHg 53%
    16:00 +30°C° 0.1 mm 7 mps 721 mmHg 56%
    17:00 +29°C° 0.1 mm 7 mps 721 mmHg 59%
    18:00 +28°C° 0.1 mm 6 mps 721 mmHg 62%
    19:00 +27°C° 0 mm 6 mps 721 mmHg 63%
    20:00 +26°C° 0 mm 6 mps 722 mmHg 65%
    21:00 +24°C° 0 mm 6 mps 722 mmHg 66%
    22:00 +23°C° 0 mm 6 mps 722 mmHg 70%
    23:00 +23°C° 0 mm 6 mps 722 mmHg 74%
    Show more